Total_Precipitation_Accumulation
1.52 1.41 1.36 1.54 1.60 1.82 1.93 2.07 2.08 1.93 1.69 1.47 1.45 1.45 1.54 1.54 1.53 1.55 1.90 2.34 2.86 3.60 3.92 3.76 3.53 3.33 3.28 3.24 3.07 3.00 2.91 2.69 2.80 3.15 3.75 3.99 3.72 3.22 2.89 2.62 2.39 2.12 2.14
1.35 1.37 1.27 1.35 1.49 1.75 2.04 2.16 1.99 1.91 1.75 1.66 1.66 1.61 1.61 1.56 1.52 1.43 1.62 1.87 1.96 2.35 2.97 3.55 3.76 3.63 3.52 3.44 3.18 3.04 2.91 2.68 2.67 2.87 2.94 3.06 3.11 2.84 2.59 2.56 2.36 2.12 2.26
1.15 1.25 1.31 1.32 1.40 1.70 2.03 2.26 2.13 2.01 1.81 1.77 1.76 1.71 1.64 1.61 1.52 1.45 1.57 1.76 1.64 1.67 2.16 2.91 3.59 3.79 3.59 3.50 3.23 3.04 2.80 2.54 2.45 2.53 2.64 2.62 2.76 2.77 2.63 2.55 2.37 2.23 2.22
1.16 1.26 1.37 1.32 1.36 1.63 1.94 2.22 2.28 2.27 2.18 2.08 1.97 1.84 1.74 1.87 1.70 1.58 1.65 1.80 1.90 1.74 1.82 2.25 2.83 3.35 3.52 3.59 3.22 2.88 2.61 2.38 2.28 2.24 2.40 2.32 2.48 2.67 2.69 2.59 2.51 2.51 2.42
1.20 1.31 1.53 1.56 1.57 1.76 1.88 1.92 2.10 2.16 2.25 2.20 1.95 1.91 1.82 1.94 2.02 1.92 1.99 2.09 2.11 2.02 1.89 1.87 2.11 2.39 2.99 3.37 3.29 3.05 2.85 2.48 2.27 2.16 2.31 2.20 2.19 2.46 2.60 2.47 2.49 2.56 2.53
1.42 1.38 1.56 1.62 1.68 1.94 2.00 2.04 2.29 2.30 2.23 2.28 2.04 1.92 1.90 1.90 1.94 2.15 2.31 2.32 2.29 2.08 2.03 1.90 2.02 1.99 2.42 2.90 3.08 3.06 2.88 2.79 2.67 2.47 2.54 2.42 2.21 2.33 2.48 2.34 2.39 2.44 2.54
1.51 1.55 1.62 1.69 1.73 1.86 1.93 2.04 2.40 2.47 2.31 2.16 2.35 2.35 2.25 2.05 1.96 2.05 2.20 2.43 2.51 2.29 2.18 2.19 2.11 2.02 1.97 2.20 2.42 2.70 2.77 3.01 3.13 2.95 2.77 2.56 2.32 2.43 2.55 2.40 2.43 2.42 2.42
1.45 1.40 1.64 1.81 1.79 1.95 2.00 2.16 2.46 2.73 2.47 2.27 2.65 3.14 2.88 2.58 2.21 1.98 2.03 2.10 2.35 2.35 2.19 2.06 1.98 1.97 1.93 1.95 1.83 2.08 2.44 2.94 3.39 3.20 2.80 2.64 2.47 2.38 2.50 2.43 2.41 2.36 2.35
1.71 1.66 1.78 1.96 1.94 2.01 2.13 2.17 2.26 2.78 2.95 2.68 2.60 3.22 3.10 2.84 2.78 2.23 1.82 1.73 2.02 2.23 2.25 2.11 2.02 2.07 2.08 2.10 1.89 1.74 1.98 2.41 3.09 3.15 2.87 2.85 2.76 2.51 2.33 2.26 2.25 2.35 2.44
1.97 1.84 1.89 2.00 2.05 2.15 2.13 1.95 2.10 2.61 3.14 3.19 2.93 2.69 2.54 2.47 2.64 2.56 2.00 1.65 1.72 1.92 2.16 2.07 2.07 2.15 2.19 2.26 2.20 1.87 1.68 1.89 2.47 3.06 3.25 3.18 3.07 2.81 2.55 2.36 2.29 2.32 2.32
2.01 1.86 1.83 2.00 2.11 2.19 2.17 2.21 2.34 2.64 2.97 3.27 3.23 2.94 2.66 2.41 1.99 2.16 2.21 1.99 1.70 1.61 1.72 1.88 2.05 2.12 2.16 2.14 2.21 2.03 1.68 1.53 1.85 2.50 3.12 3.30 3.19 3.06 2.92 2.81 2.82 2.75 2.58
1.87 1.83 1.84 1.90 1.92 2.00 2.10 2.25 2.49 2.63 2.81 3.04 3.12 2.79 2.64 2.55 2.31 2.12 1.95 2.04 1.99 1.69 1.54 1.56 1.69 1.89 1.99 2.09 1.95 1.97 1.71 1.48 1.49 1.67 2.09 2.63 2.87 3.02 3.12 3.17 3.10 2.94 2.89
1.65 1.66 1.72 1.75 1.71 1.73 1.87 2.04 2.26 2.29 2.40 2.62 2.74 2.64 2.47 2.29 2.21 2.25 2.19 2.07 1.92 1.64 1.51 1.37 1.46 1.61 1.64 1.85 2.03 1.99 1.69 1.57 1.42 1.36 1.41 1.64 2.04 2.42 2.80 3.16 3.27 3.20 3.16
1.44 1.40 1.44 1.51 1.54 1.55 1.63 1.81 1.95 1.93 1.99 2.18 2.24 2.32 2.23 2.13 2.12 2.11 2.14 2.28 2.13 1.90 1.54 1.22 1.28 1.45 1.43 1.54 1.88 1.95 1.55 1.46 1.31 1.24 1.24 1.29 1.44 1.73 2.12 2.50 2.81 3.00 3.06
1.20 1.17 1.23 1.35 1.46 1.46 1.47 1.63 1.76 1.70 1.77 1.90 2.04 2.19 2.13 2.06 2.03 2.04 2.11 2.21 2.27 2.15 1.85 1.38 1.22 1.21 1.25 1.34 1.70 1.59 1.47 1.46 1.31 1.22 1.13 1.11 1.17 1.29 1.48 1.76 2.00 2.19 2.27
1.12 1.12 1.14 1.17 1.20 1.25 1.32 1.51 1.68 1.73 1.71 1.77 1.84 1.96 2.09 2.08 2.07 2.05 2.12 2.15 2.14 2.14 2.00 1.57 1.29 1.18 1.28 1.23 1.45 1.23 1.34 1.53 1.31 1.14 1.07 1.03 1.04 1.13 1.25 1.42 1.49 1.47 1.46
0.92 0.90 0.90 0.96 1.09 1.11 1.13 1.32 1.42 1.43 1.56 1.66 1.62 1.66 1.82 1.94 2.05 2.05 2.07 2.07 2.12 2.08 1.95 1.71 1.36 1.21 1.35 1.39 1.43 1.24 1.20 1.25 1.18 1.15 1.08 1.00 0.96 1.02 1.04 1.16 1.29 1.20 1.11
0.70 0.73 0.79 0.78 0.97 1.13 1.17 1.22 1.23 1.23 1.37 1.47 1.48 1.54 1.59 1.60 1.71 1.83 1.96 1.93 2.00 2.04 2.00 1.89 1.59 1.38 1.39 1.48 1.66 1.61 1.46 1.34 1.32 1.42 1.37 1.21 1.09 1.07 1.10 1.13 1.24 1.19 1.00
0.63 0.68 0.77 0.77 0.81 0.95 1.07 1.10 1.10 1.11 1.16 1.22 1.25 1.33 1.36 1.45 1.60 1.60 1.68 1.76 1.83 1.87 1.98 1.94 1.83 1.72 1.58 1.51 1.60 1.58 1.61 1.72 1.64 1.62 1.65 1.48 1.32 1.22 1.17 1.19 1.23 1.23 1.10
0.67 0.67 0.64 0.69 0.74 0.83 0.95 0.98 0.99 0.98 0.99 1.00 1.12 1.19 1.24 1.30 1.41 1.47 1.49 1.63 1.75 1.83 1.86 1.84 1.78 1.72 1.67 1.63 1.63 1.63 1.70 1.84 1.92 1.76 1.69 1.59 1.56 1.45 1.33 1.26 1.23 1.24 1.25
0.51 0.54 0.51 0.52 0.57 0.66 0.72 0.75 0.81 0.88 0.94 0.95 1.05 1.07 1.11 1.11 1.17 1.23 1.23 1.41 1.56 1.73 1.80 1.83 1.74 1.64 1.58 1.59 1.58 1.60 1.69 1.91 1.97 1.97 1.92 1.76 1.63 1.44 1.37 1.32 1.26 1.28 1.30
0.41 0.43 0.44 0.47 0.50 0.52 0.63 0.65 0.65 0.73 0.83 0.88 0.95 0.99 1.07 1.11 1.07 1.03 1.01 1.08 1.21 1.33 1.52 1.65 1.69 1.61 1.53 1.51 1.62 1.75 1.75 1.89 2.02 1.92 1.80 1.87 1.76 1.64 1.47 1.33 1.39 1.40 1.35
0.45 0.45 0.45 0.49 0.45 0.43 0.51 0.48 0.60 0.76 0.78 0.77 0.78 0.92 1.02 1.06 1.11 1.11 1.00 0.99 0.98 1.01 1.14 1.32 1.45 1.46 1.46 1.49 1.60 1.73 1.82 1.89 1.80 1.85 1.81 1.90 1.83 1.68 1.46 1.42 1.51 1.40 1.36
0.45 0.50 0.50 0.51 0.45 0.37 0.43 0.45 0.54 0.65 0.68 0.66 0.69 0.81 0.96 1.07 1.13 1.16 1.10 1.14 1.08 0.95 0.94 1.01 1.19 1.30 1.34 1.52 1.71 1.88 2.01 2.01 1.89 1.84 1.81 1.87 1.75 1.59 1.41 1.37 1.50 1.38 1.29
0.42 0.48 0.55 0.53 0.43 0.35 0.40 0.47 0.57 0.65 0.72 0.71 0.70 0.76 0.93 1.01 1.18 1.24 1.16 1.23 1.20 0.98 0.91 1.00 1.05 1.15 1.29 1.46 1.68 1.90 1.99 2.01 2.00 1.87 1.67 1.57 1.49 1.52 1.50 1.39 1.37 1.37 1.26
0.43 0.46 0.49 0.48 0.42 0.40 0.44 0.46 0.55 0.57 0.66 0.73 0.75 0.77 1.00 1.07 1.18 1.16 1.09 1.27 1.36 1.18 0.92 0.91 0.99 1.13 1.24 1.41 1.67 1.84 2.08 2.10 1.94 1.86 1.65 1.49 1.49 1.59 1.75 1.56 1.34 1.24 1.17